Location: Ajisawe
(8.4333°N, 4.3833°E)
Time: 22:38:40
(UTC+00:00)

A-11 Canister half - Pass Details

Date: 26 April 2021
Orbit: 1514 x 1685 km, 47.2° (Epoch: 14 May)

Event Time Altitude Azimuth Distance (km) Brightness Sun altitude
Rises 02:36:41 0° 327° (NNW) 4,839 11.6 -41.0°
Reaches altitude 10° 02:39:54 10° 332° (NNW) 3,873 11.0 -40.3°
Maximum altitude 02:49:36 55° 48° (NE) 1,943 9.6 -38.1°
Drops below altitude 10° 02:59:27 10° 124° (ESE) 3,945 11.4 -35.9°
Sets 03:02:43 0° 128° (SE) 4,932 12.0 -35.2°
